When you browse on this site, cookies collect data to enhance your experience and personalize the content and advertising you see.
Visit our Privacy Policy to learn more. By continuing to use the site, you agree to this use of cookies and data.
  • In United Kingdom
  • List of Countries
  • For 7 days
  • Water Temperature
  • Weather Map
  • Weather Widgets
  • user-avatar
    Login

    Hourly Weather Mezotur

    Today, 23 September, Monday

    Time Temperature Precipitation Wind Pressure Humidity
    00:00 +17°C° 0 mm 2 mps 754 mmHg 31%
    01:00 +17°C° 0 mm 2 mps 754 mmHg 32%
    02:00 +17°C° 0 mm 2 mps 753 mmHg 33%
    03:00 +17°C° 0 mm 2 mps 753 mmHg 33%
    04:00 +18°C° 0 mm 1 mps 753 mmHg 33%
    05:00 +18°C° 0.1 mm 1 mps 753 mmHg 39%
    06:00 +16°C° 0.1 mm 1 mps 753 mmHg 46%
    07:00 +16°C° 0.1 mm 1 mps 753 mmHg 52%
    08:00 +16°C° 0.1 mm 2 mps 753 mmHg 54%
    09:00 +16°C° 0.1 mm 2 mps 753 mmHg 57%
    10:00 +16°C° 0.1 mm 2 mps 753 mmHg 60%
    11:00 +16°C° 0 mm 2 mps 753 mmHg 60%
    12:00 +16°C° 0 mm 2 mps 753 mmHg 60%
    13:00 +16°C° 0 mm 2 mps 753 mmHg 60%
    14:00 +16°C° 0.1 mm 2 mps 753 mmHg 61%
    15:00 +16°C° 0.1 mm 2 mps 752 mmHg 61%
    16:00 +16°C° 0.1 mm 2 mps 752 mmHg 62%
    17:00 +16°C° 0 mm 2 mps 752 mmHg 61%
    18:00 +16°C° 0 mm 2 mps 752 mmHg 61%
    19:00 +16°C° 0 mm 2 mps 752 mmHg 60%
    20:00 +16°C° 0 mm 2 mps 752 mmHg 60%
    21:00 +16°C° 0 mm 2 mps 752 mmHg 60%
    22:00 +16°C° 0 mm 2 mps 752 mmHg 59%
    23:00 +16°C° 0 mm 2 mps 752 mmHg 60%

    Tomorrow, 24 September, Tuesday

    Time Temperature Precipitation Wind Pressure Humidity
    00:00 +15°C° 0 mm 2 mps 752 mmHg 61%
    01:00 +15°C° 0 mm 2 mps 752 mmHg 62%
    02:00 +15°C° 0 mm 2 mps 752 mmHg 64%
    03:00 +14°C° 0 mm 2 mps 751 mmHg 66%
    04:00 +14°C° 0 mm 2 mps 751 mmHg 68%
    05:00 +13°C° 0 mm 3 mps 751 mmHg 67%
    06:00 +14°C° 0 mm 3 mps 751 mmHg 65%
    07:00 +14°C° 0 mm 3 mps 751 mmHg 63%
    08:00 +16°C° 0 mm 3 mps 751 mmHg 58%
    09:00 +18°C° 0 mm 3 mps 752 mmHg 52%
    10:00 +19°C° 0 mm 3 mps 752 mmHg 46%
    11:00 +20°C° 0 mm 2 mps 752 mmHg 45%
    12:00 +21°C° 0 mm 2 mps 751 mmHg 44%
    13:00 +23°C° 0 mm 2 mps 751 mmHg 43%
    14:00 +23°C° 0 mm 2 mps 751 mmHg 44%
    15:00 +23°C° 0 mm 2 mps 751 mmHg 46%
    16:00 +22°C° 0 mm 3 mps 751 mmHg 47%
    17:00 +20°C° 0 mm 3 mps 751 mmHg 51%
    18:00 +19°C° 0 mm 3 mps 751 mmHg 55%
    19:00 +18°C° 0 mm 3 mps 751 mmHg 58%
    20:00 +18°C° 0 mm 3 mps 751 mmHg 59%
    21:00 +18°C° 0 mm 3 mps 752 mmHg 59%
    22:00 +18°C° 0 mm 3 mps 752 mmHg 59%
    23:00 +17°C° 0.2 mm 3 mps 752 mmHg 64%

    Day after tomorrow, 25 September, Wednesday

    Time Temperature Precipitation Wind Pressure Humidity
    00:00 +17°C° 0.2 mm 3 mps 752 mmHg 69%
    01:00 +16°C° 0.2 mm 3 mps 751 mmHg 75%
    02:00 +16°C° 0.8 mm 3 mps 751 mmHg 80%
    03:00 +15°C° 0.8 mm 2 mps 751 mmHg 85%
    04:00 +15°C° 0.8 mm 2 mps 751 mmHg 91%
    05:00 +14°C° 0.9 mm 3 mps 751 mmHg 91%
    06:00 +14°C° 0.9 mm 3 mps 751 mmHg 91%
    07:00 +14°C° 0.9 mm 3 mps 751 mmHg 92%
    08:00 +16°C° 0.2 mm 3 mps 752 mmHg 87%
    09:00 +17°C° 0.2 mm 3 mps 752 mmHg 83%
    10:00 +17°C° 0.2 mm 3 mps 752 mmHg 79%
    11:00 +18°C° 0 mm 3 mps 752 mmHg 75%
    12:00 +18°C° 0 mm 3 mps 751 mmHg 72%
    13:00 +19°C° 0 mm 3 mps 751 mmHg 68%
    14:00 +19°C° 0 mm 3 mps 751 mmHg 68%
    15:00 +19°C° 0 mm 3 mps 751 mmHg 68%
    16:00 +19°C° 0 mm 3 mps 751 mmHg 68%
    17:00 +18°C° 0 mm 3 mps 751 mmHg 73%
    18:00 +17°C° 0 mm 3 mps 751 mmHg 78%
    19:00 +17°C° 0 mm 3 mps 751 mmHg 83%
    20:00 +16°C° 0 mm 2 mps 751 mmHg 84%
    21:00 +16°C° 0 mm 2 mps 751 mmHg 85%
    22:00 +16°C° 0 mm 1 mps 751 mmHg 85%
    23:00 +16°C° 0 mm 1 mps 751 mmHg 85%

    26 September, Thursday

    Time Temperature Precipitation Wind Pressure Humidity
    00:00 +16°C° 0 mm 1 mps 751 mmHg 84%
    01:00 +16°C° 0 mm 1 mps 751 mmHg 83%
    02:00 +16°C° 0 mm 1 mps 752 mmHg 83%
    03:00 +15°C° 0 mm 0 mps 752 mmHg 82%
    04:00 +15°C° 0 mm 0 mps 752 mmHg 82%
    05:00 +16°C° 0 mm 1 mps 752 mmHg 81%
    06:00 +16°C° 0 mm 1 mps 752 mmHg 80%
    07:00 +16°C° 0 mm 1 mps 752 mmHg 79%
    08:00 +17°C° 0 mm 2 mps 753 mmHg 77%
    09:00 +17°C° 0 mm 3 mps 753 mmHg 74%
    10:00 +17°C° 0 mm 4 mps 753 mmHg 72%
    11:00 +17°C° 0.1 mm 4 mps 753 mmHg 74%
    12:00 +16°C° 0.1 mm 3 mps 753 mmHg 77%
    13:00 +16°C° 0.1 mm 3 mps 753 mmHg 79%
    14:00 +16°C° 0 mm 3 mps 753 mmHg 78%
    15:00 +16°C° 0 mm 2 mps 753 mmHg 77%
    16:00 +18°C° 0 mm 1 mps 753 mmHg 76%
    17:00 +16°C° 0 mm 2 mps 753 mmHg 79%
    18:00 +15°C° 0 mm 2 mps 754 mmHg 82%
    19:00 +14°C° 0 mm 2 mps 754 mmHg 85%
    20:00 +14°C° 0 mm 2 mps 754 mmHg 84%
    21:00 +14°C° 0 mm 2 mps 755 mmHg 84%
    22:00 +14°C° 0 mm 2 mps 755 mmHg 83%
    23:00 +13°C° 0 mm 2 mps 755 mmHg 84%

    27 September, Friday

    Time Temperature Precipitation Wind Pressure Humidity
    00:00 +13°C° 0 mm 2 mps 755 mmHg 84%
    01:00 +13°C° 0 mm 2 mps 755 mmHg 85%
    02:00 +12°C° 0 mm 2 mps 755 mmHg 87%
    03:00 +12°C° 0 mm 2 mps 756 mmHg 89%
    04:00 +12°C° 0 mm 1 mps 756 mmHg 92%
    05:00 +12°C° 0 mm 1 mps 756 mmHg 89%
    06:00 +13°C° 0 mm 1 mps 756 mmHg 87%
    07:00 +14°C° 0 mm 1 mps 756 mmHg 84%
    08:00 +16°C° 0 mm 1 mps 756 mmHg 75%
    09:00 +19°C° 0 mm 1 mps 756 mmHg 66%
    10:00 +21°C° 0 mm 1 mps 757 mmHg 57%
    11:00 +22°C° 0 mm 1 mps 756 mmHg 52%
    12:00 +21°C° 0 mm 0 mps 756 mmHg 47%
    13:00 +22°C° 0 mm 0 mps 756 mmHg 43%
    14:00 +22°C° 0 mm 0 mps 756 mmHg 42%
    15:00 +22°C° 0 mm 0 mps 755 mmHg 42%
    16:00 +21°C° 0 mm 0 mps 755 mmHg 41%
    17:00 +22°C° 0 mm 1 mps 755 mmHg 45%
    18:00 +21°C° 0 mm 1 mps 756 mmHg 49%
    19:00 +19°C° 0 mm 2 mps 756 mmHg 52%
    20:00 +18°C° 0 mm 2 mps 756 mmHg 54%
    21:00 +18°C° 0 mm 2 mps 756 mmHg 56%
    22:00 +17°C° 0 mm 2 mps 756 mmHg 59%
    23:00 +17°C° 0 mm 2 mps 756 mmHg 61%

    28 September, Saturday

    Time Temperature Precipitation Wind Pressure Humidity
    00:00 +16°C° 0 mm 2 mps 756 mmHg 63%
    01:00 +16°C° 0 mm 2 mps 756 mmHg 65%
    02:00 +16°C° 0 mm 2 mps 756 mmHg 66%
    03:00 +15°C° 0 mm 2 mps 756 mmHg 67%
    04:00 +15°C° 0 mm 2 mps 756 mmHg 68%
    05:00 +16°C° 0 mm 2 mps 756 mmHg 67%
    06:00 +16°C° 0 mm 2 mps 756 mmHg 66%
    07:00 +16°C° 0 mm 2 mps 756 mmHg 65%
    08:00 +18°C° 0 mm 2 mps 756 mmHg 60%
    09:00 +20°C° 0 mm 2 mps 756 mmHg 54%
    10:00 +23°C° 0 mm 2 mps 756 mmHg 48%
    11:00 +24°C° 0 mm 2 mps 756 mmHg 46%
    12:00 +25°C° 0 mm 3 mps 755 mmHg 43%
    13:00 +26°C° 0 mm 3 mps 755 mmHg 40%
    14:00 +26°C° 0 mm 3 mps 755 mmHg 40%
    15:00 +25°C° 0 mm 3 mps 754 mmHg 41%
    16:00 +25°C° 0 mm 2 mps 754 mmHg 41%
    17:00 +24°C° 0 mm 2 mps 754 mmHg 44%
    18:00 +21°C° 0 mm 2 mps 754 mmHg 47%
    19:00 +20°C° 0 mm 2 mps 754 mmHg 51%
    20:00 +20°C° 0 mm 2 mps 755 mmHg 52%
    21:00 +19°C° 0 mm 2 mps 755 mmHg 53%
    22:00 +19°C° 0 mm 2 mps 755 mmHg 54%
    23:00 +18°C° 0 mm 2 mps 755 mmHg 55%
    Show more